Regional Weather Roundup
Issued by NWS

Home | Current Version | Previous Version | Text Only | Print | Product List | Glossary Off
Versions: 1 2 3 4 5 6 7 8 9 10 11 12 13 14 15 16 17 18 19 20 21 22 23 24 25 26 27 28 29 30 31 32 33 34 35 36 37 38 39 40 41 42 43 44 45 46 47 48 49 50

000
ASUS43 KBIS 251210
RWRND

NORTH DAKOTA REGIONAL WEATHER ROUNDUP
NATIONAL WEATHER SERVICE BISMARCK ND
700 AM CDT SAT APR 25 2015

NOTE: "FAIR" INDICATES FEW OR NO CLOUDS BELOW 12,000 FEET WITH NO
SIGNIFICANT WEATHER AND/OR OBSTRUCTIONS TO VISIBILITY.


NDZ001>003-009>011-017-251300-
NORTHWEST NORTH DAKOTA

CITY           SKY/WX    TMP DP  RH WIND       PRES   REMARKS
WILLISTON      LGT RAIN  46  41  82 SE5       29.73R
6HR MIN TEMP:  45; 6HR MAX TEMP:  53; 6HR PCP: TRACE;

MINOT          CLOUDY    37  35  92 CALM      29.79R FOG
MINOT AFB      CLOUDY    35  35 100 SE5       29.79R FOG
$$

NDZ018>021-031>035-040>046-251300-
SOUTHWEST NORTH DAKOTA

CITY           SKY/WX    TMP DP  RH WIND       PRES   REMARKS
BISMARCK       CLOUDY    44  41  89 E13       29.77R
6HR MIN TEMP:  41; 6HR MAX TEMP:  46;

DICKINSON      FOG       41  40  96 SE12      29.70S VSB 1/4
GARRISON         N/A     42  40  92 SE13      29.77R
6HR MIN TEMP:  39; 6HR MAX TEMP:  46;

HETTINGER ARPT FOG       41  40  96 SE6       29.72R VSB 1/2
$$

NDZ004>008-012>016-024-026-027-054-251300-
NORTHEAST NORTH DAKOTA

CITY           SKY/WX    TMP DP  RH WIND       PRES   REMARKS
GRAND FORKS    CLOUDY    44  32  62 E10       29.86R
GRND FRKS AFB  CLOUDY    42  32  67 E7        29.85S
DEVILS LAKE    CLOUDY    43  34  70 E8        29.83R
$$

NDZ022-023-025-028>030-036>039-047>053-251300-
SOUTHEAST NORTH DAKOTA

CITY           SKY/WX    TMP DP  RH WIND       PRES   REMARKS
FARGO          CLOUDY    43  37  79 E9        29.84R
6HR MIN TEMP:  43; 6HR MAX TEMP:  46;

JAMESTOWN      CLOUDY    41  39  93 E10       29.79R FOG
$$



USA.gov is the U.S. government's official web portal to all federal, state and local government web resources and services.